TIANMU-1 16

Last updated on Sun Oct 26 2025 00:02:31 GMT+0000 (Coordinated Universal Time)

1 58701U 24004B 25298.51458103 .00009282 00000+0 38785-3 0 9998 2 58701 97.4595 119.6185 0008091 102.9037 257.3104 15.23810942100001
UTC large
Height (km)
Speed (km/s)
/
Latitude / Longitude
Inclination (degrees)
Orbital Period (minutes)
Azimuth
Elevation
Range (km)
Doppler Factor

Next 0 passes for location: London (51.5072 / 0.1276)

Sorry there are no passes over London.